Location: Eschertshofen
(49.3064°N, 11.5756°E)
Time: 03:51:02
(UTC+00:00)

Cosmos 2034 Rocket - Pass Details

Date: 18 September 2020
Orbit: 957 x 1001 km, 82.9° (Epoch: 19 October)

Event Time Altitude Azimuth Distance (km) Brightness Sun altitude
Rises 18:54:17 0° 179° (S) 3,712 6.8 -15.9°
Reaches altitude 10° 18:56:49 10° 177° (S) 2,766 6.1 -16.2°
Maximum altitude 19:03:07 70° 95° (E) 1,060 4.0 -17.2°
Drops below altitude 10° 19:09:27 10° 13° (NNE) 2,769 6.5 -18.1°
Sets 19:11:59 0° 12° (NNE) 3,717 7.2 -18.5°
